Location: Abenicio Salazar Historic District
(35.3000°N, 106.5511°W)
Time: 09:36:29
(UTC+00:00)

Daily predictions for brighter satellites

Satellite Brightness Start Highest point End
(mag) Time Altitude Azimuth Time Altitude Azimuth Time Altitude Azimuth
Okean 1-7 4.4 12:01:47 17° W 12:03:09 20° WNW 12:06:21 10° NNW
STARLINK-1035 3.9 12:00:11 10° SW 12:04:14 66° SE 12:08:20 10° NE
Cosmos 1092 Rocket 4.4 12:01:00 10° S 12:07:16 69° E 12:13:34 10° NNE
Cosmos 2219 Rocket 3.2 12:03:18 10° NW 12:07:27 22° W 12:11:35 10° SSW
STARLINK-1032 3.8 12:05:04 10° SW 12:09:10 74° SE 12:13:18 10° NE
Meteor 1-31 Rocket 3.1 12:06:02 10° N 12:09:49 46° WNW 12:13:34 10° SSW
STARLINK-1011 3.7 12:10:02 10° SW 12:14:09 82° SE 12:18:18 10° NE
Meteor 1-12 Rocket 4.4 12:10:34 10° N 12:16:36 87° E 12:22:30 10° S
Cosmos 1980 3.8 12:11:25 10° NNW 12:16:55 53° WSW 12:22:22 10° S
NOSS 3-2 (C) 3.3 12:12:09 10° SW 12:17:44 79° WNW 12:23:59 10° NNE
STARLINK-1036 3.6 12:15:00 10° SW 12:19:08 89° NW 12:23:17 10° NE
ASTRO E2 3.2 12:18:30 11° WSW 12:22:10 48° S 12:25:59 10° ESE
Meteor PRIRODA 3.7 12:20:14 10° N 12:23:48 55° WNW 12:27:22 10° SSW
STARLINK-1044 3.6 12:19:58 10° SW 12:24:05 80° NW 12:28:14 10° NE
BREEZE M DEB (TANK) 4.5 12:23:09 10° NW 12:24:48 15° N 12:27:13 10° NNE
CENTAUR R/B 2.4 12:19:25 10° SSW 12:25:04 87° WNW 12:31:42 10° NNE
STARLINK-1027 3.7 12:21:54 10° SW 12:26:08 72° NW 12:30:24 10° NE
SKYMED 2 3.7 12:22:04 10° SSE 12:26:23 83° ENE 12:30:44 10° N
Meteor 1-4 Rocket 2.6 12:25:07 10° SSW 12:28:48 69° W 12:32:33 10° N
Cosmos 2082 3.9 12:23:19 10° SW 12:28:51 53° WNW 12:34:26 10° NNE
STARLINK-1047 3.6 12:24:56 10° SW 12:29:03 72° NW 12:33:12 10° NE
Cosmos 2333 Rocket 3.8 12:27:16 10° WNW 12:29:22 12° W 12:31:30 10° WSW
SeaSat 1 3.8 12:26:03 10° SSW 12:29:22 18° WSW 12:32:42 10° WNW
SL-16 R/B 2.8 12:24:35 10° NNW 12:30:12 63° ENE 12:35:48 10° SSE
Cosmos 1300 Rocket 3.6 12:26:37 10° NNW 12:30:50 56° W 12:35:02 10° S
Cosmos 2026 Rocket 4.3 12:24:47 10° S 12:30:56 77° E 12:37:03 10° N
STARLINK-1037 3.7 12:27:08 10° SW 12:31:15 69° NW 12:35:23 10° NE
Nadezhda 4 Rocket 4.3 12:25:34 10° SSW 12:31:32 45° W 12:37:35 10° N
Cosmos 1975 4.2 12:32:11 10° NW 12:34:58 18° W 12:37:45 10° SW
